F4FEB-13 Weather Reports


time (UTC)temp
C
wind
direction
speed
KPH
gust
KPH
rain 1hr
cm
rain 24hr
cm
rain mn
cm
humidity
%
barometer
mb
20260507183911 10 305 0.0 0.0 0.00 0.36 0.15 85 1014.1
20260507183411 10 305 0.0 0.0 0.00 0.36 0.15 84 1014.1
20260507182915 10 305 0.0 0.0 0.00 0.38 0.15 82 1014.1
20260507182911 10 305 0.0 0.0 0.00 0.38 0.15 82 1014.1
20260507182411 11 305 0.0 0.0 0.00 0.38 0.15 82 1014.1
20260507181911 11 305 0.0 0.0 0.00 0.38 0.15 81 1014.1
20260507181415 11 305 0.0 1.6 0.00 0.38 0.15 79 1014.0
20260507181411 11 305 0.0 1.6 0.00 0.38 0.15 79 1014.0
20260507180911 11 281 0.0 0.0 0.00 0.38 0.15 78 1014.1
20260507180411 12 281 0.0 0.0 0.00 0.38 0.15 76 1014.1
20260507175914 12 281 0.0 0.0 0.00 0.38 0.15 75 1014.1
20260507175911 12 281 0.0 0.0 0.00 0.38 0.15 75 1014.1
20260507175411 12 281 0.0 0.0 0.00 0.38 0.15 75 1014.1
20260507174911 12 281 0.0 3.2 0.00 0.38 0.15 72 1014.1
20260507174416 13 300 1.6 4.8 0.00 0.38 0.15 69 1014.1
20260507174411 13 300 1.6 4.8 0.00 0.38 0.15 69 1014.1
20260507173911 13 247 0.0 3.2 0.00 0.38 0.15 67 1014.1
20260507173411 13 315 0.0 1.6 0.00 0.38 0.15 66 1014.1
20260507172914 13 320 0.0 4.8 0.00 0.53 0.15 65 1014.1
20260507172911 13 320 0.0 4.8 0.00 0.53 0.15 65 1014.1
20260507172411 13 271 0.0 8.0 0.00 0.53 0.15 64 1014.1
20260507171911 13 43 0.0 0.0 0.00 0.53 0.15 65 1014.1
20260507171414 13 43 0.0 8.0 0.00 0.53 0.15 64 1014.1
20260507171411 13 43 0.0 8.0 0.00 0.53 0.15 64 1014.1
20260507170911 13 71 8.0 8.0 0.00 0.53 0.15 65 1014.1
20260507170411 14 1 0.0 3.2 0.00 0.53 0.15 62 1014.1
20260507165914 14 317 1.6 8.0 0.00 0.53 0.15 61 1014.0
20260507165911 14 317 1.6 8.0 0.00 0.53 0.15 61 1014.0
20260507165411 14 306 1.6 4.8 0.00 0.53 0.15 61 1014.0
20260507164911 14 299 1.6 6.4 0.00 0.53 0.15 63 1014.0
20260507164411 14 316 0.0 8.0 0.00 0.53 0.15 62 1014.0
20260507163911 15 234 0.0 6.4 0.00 0.53 0.15 65 1014.0
20260507163411 14 237 0.0 6.4 0.00 0.53 0.15 62 1014.0
20260507162911 15 336 0.0 4.8 0.00 0.53 0.15 61 1014.0
20260507162411 14 334 0.0 4.8 0.00 0.56 0.15 63 1014.1
20260507161911 14 322 4.8 9.7 0.00 0.56 0.15 63 1014.0
20260507161414 14 274 6.4 6.4 0.00 0.56 0.15 66 1014.0
20260507161411 14 274 6.4 6.4 0.00 0.56 0.15 66 1014.0
20260507160911 14 248 0.0 6.4 0.00 0.56 0.15 66 1014.1
20260507160411 14 33 1.6 4.8 0.00 0.56 0.15 64 1014.0
20260507155916 14 307 0.0 3.2 0.00 0.56 0.15 64 1014.0
20260507155911 14 307 0.0 3.2 0.00 0.56 0.15 64 1014.0
20260507155411 14 319 1.6 3.2 0.00 0.56 0.15 62 1013.9
20260507154911 14 52 0.0 6.4 0.00 0.56 0.15 63 1013.9
20260507154414 14 14 1.6 9.7 0.00 0.56 0.15 63 1013.9
20260507154411 14 14 1.6 9.7 0.00 0.56 0.15 63 1013.9
20260507153958 14 26 4.8 8.0 0.00 0.56 0.15 62 1014.0
20260507153911 14 26 4.8 8.0 0.00 0.56 0.15 62 1014.0
20260507153637 15 298 1.6 4.8 0.00 0.00 0.00
20260507153411 15 298 1.6 4.8 0.00 0.56 0.15 66 1013.9
20260507153240 14 125 3.2 4.8 0.00 0.61 0.15 64 1013.9
20260507152914 14 125 3.2 4.8 0.00 0.61 0.15 64 1013.9
20260507152911 14 125 3.2 4.8 0.00 0.61 0.15 64 1013.9
20260507152411 14 136 0.0 6.4 0.00 0.61 0.15 64 1013.9
20260507151911 14 113 4.8 9.7 0.00 0.61 0.15 63 1013.9
20260507151416 14 293 6.4 9.7 0.00 0.61 0.15 65 1014.0
20260507151411 14 293 6.4 9.7 0.00 0.61 0.15 65 1014.0
20260507150911 14 268 1.6 9.7 0.00 0.61 0.15 62 1014.0
20260507150411 15 4 0.0 9.7 0.00 0.61 0.15 62 1013.9
20260507145917 15 210 0.0 11.3 0.00 0.61 0.15 64 1014.0
20260507145912 15 210 0.0 11.3 0.00 0.61 0.15 64 1014.0
20260507145411 15 279 3.2 11.3 0.00 0.61 0.15 65 1014.0
20260507144912 15 286 6.4 9.7 0.00 0.61 0.15 63 1014.0
20260507144415 15 30 0.0 14.5 0.00 0.61 0.15 63 1014.0
20260507144412 15 30 0.0 14.5 0.00 0.61 0.15 63 1014.0
20260507143912 15 5 0.0 16.1 0.00 0.61 0.15 62 1014.0
20260507143412 15 306 4.8 8.0 0.00 0.61 0.15 62 1014.1
20260507142914 15 279 1.6 12.9 0.00 0.66 0.15 62 1014.1
20260507142912 15 279 1.6 12.9 0.00 0.66 0.15 62 1014.1
20260507142412 15 309 11.3 11.3 0.00 0.66 0.15 63 1014.1
20260507141912 15 237 3.2 14.5 0.00 0.66 0.15 64 1014.1
20260507141415 15 279 3.2 12.9 0.00 0.66 0.15 60 1014.1
20260507141412 15 279 3.2 12.9 0.00 0.66 0.15 60 1014.1
20260507140912 15 94 0.0 9.7 0.00 0.66 0.15 65 1014.2
20260507140412 14 327 9.7 12.9 0.00 0.66 0.15 63 1014.3
20260507135914 15 257 8.0 19.3 0.00 0.66 0.15 61 1014.2
20260507135912 15 257 8.0 19.3 0.00 0.66 0.15 61 1014.2
20260507135412 15 264 8.0 8.0 0.00 0.66 0.15 64 1014.2
20260507134912 14 344 3.2 16.1 0.00 0.66 0.15 64 1014.3
20260507134414 14 296 8.0 11.3 0.00 0.66 0.15 66 1014.3
20260507134412 14 296 8.0 11.3 0.00 0.66 0.15 66 1014.3
20260507133912 14 258 6.4 16.1 0.00 0.66 0.15 65 1014.3
20260507133412 14 327 11.3 11.3 0.00 0.66 0.15 62 1014.3
20260507132915 15 310 8.0 16.1 0.00 0.69 0.15 61 1014.3
20260507132912 15 310 8.0 16.1 0.00 0.69 0.15 61 1014.3
20260507132412 15 170 0.0 4.8 0.00 0.69 0.15 65 1014.4
20260507131912 15 281 0.0 6.4 0.00 0.69 0.15 63 1014.4
20260507131416 15 312 4.8 11.3 0.00 0.69 0.15 62 1014.4
20260507131412 15 312 4.8 11.3 0.00 0.69 0.15 62 1014.4
20260507130912 15 268 6.4 14.5 0.00 0.69 0.15 59 1014.4
20260507130412 15 177 9.7 14.5 0.00 0.69 0.15 69 1014.5
20260507125915 15 227 6.4 11.3 0.00 0.69 0.15 63 1014.5
20260507125912 15 227 6.4 11.3 0.00 0.69 0.15 63 1014.5
20260507125505 14 312 0.0 9.7 0.00 0.69 0.15 63 1014.5
20260507125412 14 312 0.0 9.7 0.00 0.69 0.15 63 1014.5
20260507124912 15 22 0.0 9.7 0.00 0.69 0.15 60 1014.5
20260507124543 14 123 4.8 11.3 0.00 0.69 0.15 65 1014.6
20260507124415 14 123 4.8 11.3 0.00 0.69 0.15 65 1014.6
20260507124412 14 123 4.8 11.3 0.00 0.69 0.15 65 1014.6
20260507123912 13 191 3.2 12.9 0.00 0.69 0.15 67 1014.6
20260507123412 13 352 0.0 8.0 0.00 0.69 0.15 66 1014.6
20260507122916 13 278 4.8 9.7 0.00 0.69 0.15 66 1014.7
20260507122912 13 278 4.8 9.7 0.00 0.69 0.15 66 1014.7
20260507122412 13 261 1.6 8.0 0.00 0.69 0.15 68 1014.7
20260507121912 13 296 6.4 9.7 0.00 0.69 0.15 66 1014.7
20260507121416 13 39 0.0 14.5 0.00 0.69 0.15 66 1014.6
20260507121412 13 39 0.0 14.5 0.00 0.69 0.15 66 1014.6
20260507120913 13 350 8.0 12.9 0.00 0.69 0.15 68 1014.6
20260507120412 13 305 4.8 12.9 0.00 0.69 0.15 68 1014.6
20260507115915 13 8 1.6 14.5 0.00 0.69 0.15 73 1014.7
20260507115912 13 8 1.6 14.5 0.00 0.69 0.15 73 1014.7
20260507115412 13 291 9.7 14.5 0.00 0.69 0.15 72 1014.6
20260507114912 13 237 1.6 11.3 0.00 0.69 0.15 70 1014.7
20260507114417 13 333 9.7 14.5 0.00 0.69 0.15 69 1014.7
20260507114412 13 333 9.7 14.5 0.00 0.69 0.15 69 1014.7
20260507113912 13 233 0.0 6.4 0.00 0.69 0.15 69 1014.7
20260507113412 13 260 3.2 8.0 0.00 0.69 0.15 70 1014.7
20260507112915 13 320 1.6 9.7 0.00 0.79 0.15 68 1014.7
20260507112912 13 320 1.6 9.7 0.00 0.79 0.15 68 1014.7
20260507112412 13 291 9.7 11.3 0.00 0.79 0.15 66 1014.7
20260507111912 14 177 0.0 8.0 0.00 0.79 0.15 66 1014.6
20260507111416 14 291 6.4 12.9 0.00 0.79 0.15 63 1014.6
20260507111412 14 291 6.4 12.9 0.00 0.79 0.15 63 1014.6
20260507110912 14 248 4.8 12.9 0.00 0.79 0.15 65 1014.6
20260507110412 14 123 3.2 16.1 0.00 0.79 0.15 62 1014.6
20260507105915 14 208 12.9 12.9 0.00 0.79 0.15 67 1014.6
20260507105912 14 208 12.9 12.9 0.00 0.79 0.15 67 1014.6
20260507105412 13 239 1.6 16.1 0.00 0.79 0.15 68 1014.7
20260507104912 14 196 4.8 9.7 0.00 0.79 0.15 70 1014.6
20260507104415 13 243 6.4 8.0 0.00 0.79 0.15 72 1014.7
20260507104412 13 243 6.4 8.0 0.00 0.79 0.15 72 1014.7
20260507103912 13 150 6.4 12.9 0.00 0.79 0.15 74 1014.7
20260507103412 12 264 4.8 11.3 0.00 0.79 0.15 75 1014.7
20260507102917 12 270 0.0 9.7 0.00 1.07 0.15 77 1014.7
20260507102912 12 270 0.0 9.7 0.00 1.07 0.15 77 1014.7
20260507102412 12 334 3.2 9.7 0.00 1.07 0.15 79 1014.7
20260507101912 12 330 0.0 4.8 0.00 1.07 0.15 78 1014.8
20260507101416 12 320 1.6 6.4 0.00 1.07 0.15 79 1014.8
20260507101412 12 320 1.6 6.4 0.00 1.07 0.15 79 1014.8
20260507100912 12 336 0.0 9.7 0.00 1.07 0.15 78 1014.8
20260507100412 12 323 8.0 11.3 0.00 1.07 0.15 77 1014.8
20260507095915 12 37 1.6 14.5 0.00 1.07 0.15 80 1014.8
20260507095912 12 37 1.6 14.5 0.00 1.07 0.15 80 1014.8
20260507095412 12 316 14.5 14.5 0.00 1.07 0.15 80 1014.8
20260507094912 12 324 1.6 4.8 0.00 1.07 0.15 80 1014.8
20260507094415 11 255 0.0 11.3 0.00 1.07 0.15 79 1014.9
20260507094412 11 255 0.0 11.3 0.00 1.07 0.15 79 1014.9
20260507093912 12 302 6.4 12.9 0.00 1.07 0.15 81 1014.9
20260507093412 12 29 0.0 9.7 0.00 1.07 0.15 81 1014.8
20260507092915 12 82 0.0 9.7 0.00 1.40 0.15 80 1014.9
20260507092912 12 82 0.0 9.7 0.00 1.40 0.15 80 1014.9
20260507092412 12 268 6.4 12.9 0.00 1.40 0.15 76 1014.8
20260507091912 12 236 9.7 11.3 0.00 1.40 0.15 79 1014.8
20260507091415 12 274 3.2 8.0 0.00 1.40 0.15 82 1014.7
20260507091412 12 274 3.2 8.0 0.00 1.40 0.15 82 1014.7
20260507090912 11 23 1.6 6.4 0.00 1.40 0.15 83 1014.7
20260507090412 11 282 1.6 9.7 0.00 1.40 0.15 84 1014.7
20260507085915 11 299 0.0 9.7 0.00 1.40 0.15 82 1014.8
20260507085912 11 299 0.0 9.7 0.00 1.40 0.15 82 1014.8
20260507085412 11 244 3.2 9.7 0.00 1.40 0.15 84 1014.8
20260507084912 11 265 1.6 6.4 0.00 1.40 0.15 83 1014.8
20260507084415 11 286 4.8 8.0 0.00 1.40 0.15 82 1014.7
20260507084412 11 286 4.8 8.0 0.00 1.40 0.15 82 1014.7
20260507083912 11 267 4.8 12.9 0.00 1.40 0.15 85 1014.7
20260507083412 11 208 6.4 12.9 0.00 1.40 0.15 85 1014.6
20260507082916 11 257 3.2 9.7 0.00 1.40 0.15 87 1014.7
20260507082912 11 257 3.2 9.7 0.00 1.40 0.15 87 1014.7
20260507082412 11 268 4.8 9.7 0.00 1.40 0.15 88 1014.6
20260507081912 10 251 4.8 6.4 0.00 1.40 0.15 88 1014.6
20260507081416 10 258 0.0 9.7 0.00 1.40 0.15 88 1014.6
20260507081412 10 258 0.0 9.7 0.00 1.40 0.15 88 1014.6
20260507080912 11 302 6.4 9.7 0.00 1.40 0.15 88 1014.6
20260507080412 11 250 6.4 8.0 0.00 1.40 0.15 90 1014.6
20260507075915 10 271 4.8 9.7 0.00 1.40 0.15 93 1014.5
20260507075912 10 271 4.8 9.7 0.00 1.40 0.15 93 1014.5
20260507075412 10 267 6.4 12.9 0.00 1.40 0.15 93 1014.5
20260507074912 10 265 6.4 9.7 0.00 1.40 0.15 95 1014.4
20260507074412 10 232 3.2 9.7 0.00 1.40 0.15 95 1014.4
20260507073912 10 358 0.0 9.7 0.00 1.40 0.15 96 1014.4
20260507073412 10 271 4.8 9.7 0.00 1.40 0.15 96 1014.4
20260507072916 10 261 9.7 11.3 0.00 1.40 0.15 97 1014.3
20260507072912 10 261 9.7 11.3 0.00 1.40 0.15 97 1014.3
20260507072412 10 203 4.8 11.3 0.00 1.40 0.15 98 1014.2
20260507071913 10 174 3.2 9.7 0.00 1.40 0.15 99 1014.2
20260507071416 10 284 4.8 11.3 0.00 1.40 0.15 99 1014.2
20260507071413 10 284 4.8 11.3 0.00 1.40 0.15 99 1014.2
20260507070913 9 188 4.8 12.9 0.00 1.40 0.15 100 1014.1
20260507070413 9 208 0.0 12.9 0.00 1.40 0.15 100 1014.1
20260507065915 9 254 3.2 11.3 0.00 1.40 0.15 100 1014.1
20260507065913 9 254 3.2 11.3 0.00 1.40 0.15 100 1014.1
20260507065413 8 226 1.6 9.7 0.00 1.40 0.15 100 1014.0
20260507064913 8 225 6.4 11.3 0.00 1.40 0.15 100 1014.0
20260507064416 8 212 9.7 11.3 0.00 1.40 0.15 100 1014.0
20260507064413 8 212 9.7 11.3 0.00 1.40 0.15 100 1014.0
20260507063413 8 203 0.0 11.3 0.00 1.40 0.15 100 1013.9
20260507062915 8 213 4.8 9.7 0.00 1.40 0.15 100 1013.9
20260507062913 8 213 4.8 9.7 0.00 1.40 0.15 100 1013.9
20260507062413 8 156 1.6 6.4 0.00 1.40 0.15 100 1013.9
20260507061913 8 187 0.0 0.0 0.00 1.40 0.15 100 1013.8
20260507061417 8 187 0.0 1.6 0.00 1.40 0.15 100 1013.8
20260507061413 8 187 0.0 1.6 0.00 1.40 0.15 100 1013.8
20260507060913 8 187 0.0 6.4 0.00 1.40 0.15 100 1013.7
20260507060413 8 234 0.0 8.0 0.00 1.40 0.15 100 1013.7
20260507055916 8 209 1.6 8.0 0.00 1.40 0.15 100 1013.7
20260507055913 8 209 1.6 8.0 0.00 1.40 0.15 100 1013.7
20260507055413 8 264 3.2 6.4 0.00 1.40 0.15 100 1013.7
20260507054913 8 215 0.0 6.4 0.00 1.40 0.15 100 1013.7
20260507054418 8 161 0.0 9.7 0.00 1.40 0.15 100 1013.7
20260507054413 8 161 0.0 9.7 0.00 1.40 0.15 100 1013.7
20260507053913 8 225 4.8 6.4 0.00 1.40 0.15 100 1013.7
20260507053413 7 171 0.0 6.4 0.00 1.40 0.15 100 1013.7
20260507052916 8 257 0.0 8.0 0.00 1.40 0.15 100 1013.6
20260507052913 8 257 0.0 8.0 0.00 1.40 0.15 100 1013.6
20260507052413 7 270 0.0 8.0 0.00 1.40 0.15 100 1013.5
20260507051913 7 274 4.8 9.7 0.00 1.40 0.15 100 1013.5
20260507051417 8 258 4.8 8.0 0.00 1.40 0.15 100 1013.5
20260507051413 8 258 4.8 8.0 0.00 1.40 0.15 100 1013.5
20260507050913 7 185 1.6 6.4 0.00 1.40 0.15 100 1013.4
20260507050413 7 229 0.0 9.7 0.00 1.40 0.15 100 1013.4
20260507045916 7 209 6.4 9.7 0.00 1.40 0.15 100 1013.4
20260507045913 7 209 6.4 9.7 0.00 1.40 0.15 100 1013.4
20260507045413 7 250 4.8 8.0 0.03 1.40 0.15 100 1013.2
20260507044913 8 208 6.4 11.3 0.03 1.40 0.15 100 1013.1
20260507044416 8 219 0.0 4.8 0.03 1.40 0.15 100 1013.2
20260507044413 8 219 0.0 4.8 0.03 1.40 0.15 100 1013.2
20260507043913 8 185 0.0 6.4 0.03 1.40 0.15 100 1013.1
20260507043413 8 258 4.8 6.4 0.03 1.40 0.15 100 1013.1
20260507042916 8 275 0.0 4.8 0.05 1.40 0.15 100 1013.0
20260507042913 8 275 0.0 4.8 0.05 1.40 0.15 100 1013.0
20260507042413 7 286 0.0 6.4 0.05 1.40 0.15 100 1013.0
20260507041913 7 258 0.0 8.0 0.05 1.40 0.15 100 1012.9
20260507041417 7 309 0.0 9.7 0.05 1.40 0.15 100 1012.9
20260507041413 7 309 0.0 9.7 0.05 1.40 0.15 100 1012.9
20260507040913 7 230 0.0 8.0 0.05 1.40 0.15 100 1012.9
20260507040413 7 293 0.0 6.4 0.05 1.40 0.15 100 1012.9
20260507035913 7 277 3.2 12.9 0.05 1.40 0.15 100 1012.9
20260507035413 7 260 0.0 9.7 0.03 1.37 0.13 100 1012.9
20260507034913 7 222 0.0 11.3 0.03 1.37 0.13 100 1012.9
20260507034413 7 258 6.4 8.0 0.05 1.37 0.13 100 1012.9
20260507033913 7 270 1.6 12.9 0.05 1.37 0.13 100 1012.8
20260507033413 7 222 0.0 14.5 0.05 1.37 0.13 100 1012.8
20260507032913 8 258 3.2 8.0 0.03 1.35 0.10 100 1012.8
20260507032413 8 232 0.0 8.0 0.03 1.35 0.10 100 1012.8
20260507031913 7 292 4.8 6.4 0.03 1.35 0.10 100 1012.8
20260507031531 7 223 4.8 9.7 0.03 1.35 0.10 100 1012.8
20260507031413 7 223 4.8 9.7 0.03 1.35 0.10 100 1012.8
20260507030913 7 243 0.0 6.4 0.03 1.35 0.10 100 1012.7
20260507030413 7 217 0.0 9.7 0.03 1.35 0.10 100 1012.8
20260507025913 8 234 3.2 9.7 0.03 1.35 0.10 100 1012.8
20260507025413 8 253 4.8 9.7 0.03 1.35 0.10 100 1012.8
20260507024913 7 226 4.8 8.0 0.00 1.32 0.08 100 1012.7
20260507024413 7 229 0.0 9.7 0.00 1.32 0.08 100 1012.7
20260507023913 7 298 4.8 8.0 0.00 1.32 0.08 100 1012.7
20260507023413 7 237 0.0 9.7 0.03 1.32 0.08 100 1012.7
20260507022913 8 270 0.0 9.7 0.03 1.32 0.08 100 1012.6
20260507022413 8 281 3.2 6.4 0.03 1.32 0.08 100 1012.6
20260507021913 8 258 0.0 4.8 0.03 1.32 0.08 100 1012.6
20260507021413 8 236 0.0 8.0 0.03 1.32 0.08 100 1012.6
20260507020914 8 264 0.0 6.4 0.05 1.32 0.08 100 1012.6
20260507020413 7 271 4.8 8.0 0.05 1.32 0.08 100 1012.5
20260507015913 7 270 6.4 9.7 0.05 1.32 0.08 100 1012.5
20260507015413 7 267 0.0 8.0 0.05 1.32 0.08 100 1012.4
20260507014913 7 222 1.6 8.0 0.05 1.32 0.08 100 1012.4
20260507014413 7 265 4.8 9.7 0.05 1.32 0.08 100 1012.4
20260507013913 7 248 6.4 11.3 0.05 1.32 0.08 100 1012.4
20260507013413 7 248 8.0 9.7 0.03 1.30 0.05 100 1012.3
20260507012913 7 258 4.8 8.0 0.03 1.30 0.05 100 1012.3
20260507012413 7 253 0.0 8.0 0.03 1.30 0.05 100 1012.3
20260507011913 7 239 0.0 11.3 0.03 1.30 0.05 100 1012.3
20260507011413 7 254 6.4 9.7 0.03 1.30 0.05 100 1012.3
20260507010913 7 254 4.8 9.7 0.00 1.27 0.03 100 1012.3
20260507010413 7 212 6.4 9.7 0.00 1.27 0.03 100 1012.3
20260507005913 7 192 0.0 9.7 0.00 1.27 0.03 100 1012.3
20260507005413 7 250 3.2 8.0 0.00 1.27 0.03 100 1012.3
20260507004913 7 217 0.0 9.7 0.00 1.27 0.03 100 1012.3
20260507004413 7 270 4.8 9.7 0.00 1.27 0.03 100 1012.2
20260507003913 7 154 6.4 9.7 0.00 1.27 0.03 100 1012.2
20260507003413 7 268 1.6 8.0 0.00 1.27 0.03 100 1012.2
20260507002913 7 247 4.8 8.0 0.00 1.27 0.03 100 1012.2
20260507002413 7 244 0.0 11.3 0.00 1.27 0.03 100 1012.1
20260507001913 7 240 3.2 8.0 0.00 1.27 0.03 100 1012.2
20260507001413 7 226 3.2 9.7 0.00 1.27 0.03 100 1012.1
20260507000913 7 215 1.6 11.3 0.00 1.27 0.03 100 1012.1
20260507000413 7 239 6.4 9.7 0.00 1.27 0.03 100 1012.1
20260506235913 7 180 4.8 9.7 0.00 1.27 0.03 100 1012.1
20260506235413 7 246 0.0 9.7 0.03 1.27 0.03 100 1012.1
20260506234914 7 264 3.2 8.0 0.03 1.27 0.03 100 1012.0
20260506234414 7 281 1.6 11.3 0.03 1.27 0.03 100 1012.0
20260506233914 7 258 0.0 11.3 0.03 1.27 0.03 100 1012.0
20260506233414 7 251 8.0 8.0 0.03 1.27 0.03 100 1012.0
20260506232914 7 250 6.4 8.0 0.03 1.27 0.03 100 1012.0
20260506232414 7 262 0.0 8.0 0.03 1.27 0.03 100 1012.0
20260506231914 7 257 8.0 11.3 0.03 1.27 0.03 100 1011.9
20260506231414 7 244 6.4 11.3 0.03 1.27 0.03 100 1011.9
20260506230914 7 251 6.4 14.5 0.03 1.27 0.03 100 1011.9
20260506230414 7 240 6.4 14.5 0.03 1.27 0.03 100 1011.8
20260506225914 7 258 9.7 12.9 0.03 1.27 0.03 100 1011.8
20260506225414 7 275 3.2 12.9 0.00 1.24 0.00 100 1011.8
20260506224914 7 154 0.0 12.9 0.00 1.24 0.00 100 1011.8
20260506224414 7 250 0.0 12.9 0.00 1.24 0.00 100 1011.7
20260506223914 7 188 1.6 12.9 0.00 1.24 0.00 100 1011.6
20260506223414 7 226 3.2 17.7 0.03 1.24 0.00 100 1011.7
20260506222914 7 216 6.4 14.5 0.03 1.24 0.00 100 1011.6
20260506222414 7 241 12.9 12.9 0.03 1.24 0.00 100 1011.7
20260506221914 7 219 4.8 16.1 0.03 1.24 0.00 100 1011.6
20260506221417 7 265 8.0 14.5 0.03 1.24 0.00 100 1011.6
20260506221414 7 265 8.0 14.5 0.03 1.24 0.00 100 1011.6
20260506220914 7 261 8.0 16.1 0.03 1.24 0.00 100 1011.4
20260506220414 7 220 9.7 14.5 0.03 1.24 0.00 100 1011.4
20260506215917 7 250 9.7 14.5 0.03 1.24 1.24 100 1011.4
20260506215914 7 250 9.7 14.5 0.03 1.24 1.24 100 1011.4
20260506215414 7 246 8.0 14.5 0.05 1.24 1.24 100 1011.3
20260506214914 7 229 4.8 14.5 0.05 1.24 1.24 100 1011.3
20260506214416 7 246 11.3 12.9 0.05 1.24 1.24 100 1011.3
20260506214414 7 246 11.3 12.9 0.05 1.24 1.24 100 1011.3
20260506213914 7 215 0.0 11.3 0.08 1.24 1.24 100 1011.2
20260506213414 7 255 11.3 12.9 0.05 1.22 1.22 100 1011.2
20260506212914 7 243 1.6 14.5 0.05 1.22 1.22 100 1011.2
20260506212414 7 268 11.3 14.5 0.08 1.22 1.22 100 1011.2
20260506211914 7 253 11.3 12.9 0.10 1.22 1.22 100 1011.2
20260506211417 7 264 11.3 12.9 0.10 1.22 1.22 100 1011.2
20260506211414 7 264 11.3 12.9 0.10 1.22 1.22 100 1011.2
20260506210914 7 239 6.4 12.9 0.10 1.22 1.22 100 1011.2
20260506210414 7 284 8.0 14.5 0.13 1.22 1.22 100 1011.1
20260506205914 7 182 4.8 14.5 0.13 1.22 1.22 100 1011.1
20260506205414 7 265 9.7 14.5 0.10 1.19 1.19 100 1011.1
20260506204914 7 171 4.8 12.9 0.13 1.19 1.19 100 1011.1
20260506204414 7 254 12.9 16.1 0.13 1.19 1.19 100 1011.0
20260506203914 7 213 8.0 14.5 0.10 1.17 1.17 100 1011.0
20260506203414 7 270 4.8 16.1 0.10 1.17 1.17 100 1011.0
20260506202918 7 250 8.0 20.9 0.13 1.17 1.17 100 1011.0
20260506202914 7 250 8.0 20.9 0.13 1.17 1.17 100 1011.0
20260506202414 7 171 8.0 17.7 0.10 1.14 1.14 100 1011.0
20260506201914 7 260 11.3 14.5 0.08 1.12 1.12 100 1011.0
20260506201414 7 232 9.7 14.5 0.10 1.12 1.12 100 1011.0
20260506200914 7 217 6.4 12.9 0.10 1.12 1.12 100 1011.0
20260506200414 7 247 9.7 12.9 0.08 1.09 1.09 100 1011.0
20260506195917 7 226 0.0 12.9 0.08 1.09 1.09 100 1011.0
20260506195914 7 226 0.0 12.9 0.08 1.09 1.09 100 1011.0
20260506195414 7 239 9.7 14.5 0.08 1.09 1.09 100 1011.0
20260506194914 7 237 4.8 12.9 0.05 1.07 1.07 100 1011.0
20260506194414 7 257 11.3 16.1 0.05 1.07 1.07 100 1010.9
20260506193914 7 180 11.3 14.5 0.05 1.07 1.07 100 1010.9
20260506193414 7 246 4.8 14.5 0.05 1.07 1.07 100 1010.9
20260506192914 7 240 11.3 19.3 0.03 1.04 1.04 100 1010.7
20260506192414 7 261 9.7 16.1 0.03 1.04 1.04 100 1010.7
20260506191914 7 236 9.7 16.1 0.03 1.04 1.04 100 1010.7
20260506191418 7 217 9.7 16.1 0.03 1.02 1.02 100 1010.6
20260506191414 7 217 9.7 16.1 0.03 1.02 1.02 100 1010.6
20260506190914 7 241 8.0 16.1 0.05 1.02 1.02 100 1010.5
20260506190414 7 170 3.2 12.9 0.05 1.02 1.02 100 1010.4
20260506185918 7 254 11.3 12.9 0.08 1.02 1.02 100 1010.4
20260506185914 7 254 11.3 12.9 0.08 1.02 1.02 100 1010.4
20260506185414 7 258 9.7 16.1 0.08 1.02 1.02 100 1010.0
20260506184914 7 255 11.3 14.5 0.08 1.02 1.02 100 1010.2
20260506184418 7 222 11.3 17.7 0.10 1.02 1.02 100 1010.2
20260506184414 7 222 11.3 17.7 0.10 1.02 1.02 100 1010.2